Weather History for Torrington, WY

Change the Weather History Date:

Wednesday, January 2, 2013

  Actual Average Record
Temperature  
Mean Temperature 25 °F 27 °F  
Max Temperature 32 °F 40 °F 63 °F (2009)
Min Temperature 18 °F 14 °F -9 °F (2002)
Degree Days  
Heating Degree Days 40 38  
Month to date heating degree days 88 76  
Since 1 July heating degree days 2570 2832  
Cooling Degree Days 0 0  
Month to date cooling degree days 0 0  
Year to date cooling degree days 0 0  
Moisture  
Dew Point 15 °F    
Average Humidity 62    
Maximum Humidity 81    
Minimum Humidity 43    
Precipitation  
Precipitation T in 0.01 in 0.05 in (2000)
Month to date precipitation T 0.02  
Year to date precipitation T 0.02  
Sea Level Pressure  
Sea Level Pressure 30.27 in    
Wind  
Wind Speed 14 mph (NW)    
Max Wind Speed 28 mph    
Max Gust Speed 37 mph    
Visibility 10 miles    
Events Snow    
T = Trace of Precipitation, MM = Missing Value Source: NWS Daily Summary

Daily Weather History Graph

Daily Weather History Graph

Search for Another Location

Airport:

Trip Planner

Search our weather history database for the weather conditions in past years. The results will help you decide how hot, cold, wet, or windy it might be!

Date:

Astronomy

Jan. 02, 2013 Rise Set
Actual Time 7:25 AM MST 4:36 PM MST
Civil Twilight 6:53 AM MST 5:08 PM MST
Nautical Twilight 6:18 AM MST 5:43 PM MST
Astronomical Twilight 5:44 AM MST 6:17 PM MST
Moon 10:18 PM MST (1/2) 10:02 AM MST (1/2)
Length of Visible Light 10h 15m
Length of Day
9h 11m
Waning Gibbous, 74% of the Moon is Illuminated
Jan 2
Waning Gibbous
Jan 4
Last Quarter
Jan 11
New
Jan 18
First Quarter
Jan 26
Full

Hourly Weather History & Observations

Time (MST) Temp. Windchill Dew Point Humidity Pressure Visibility Wind Dir Wind Speed Gust Speed Precip Events Conditions
12:53 AM 25.0 °F 15.5 °F 19.9 °F 81% 30.19 in 10.0 mi WNW 9.2 mph - N/A   Overcast
1:53 AM 26.1 °F 13.6 °F 19.9 °F 78% 30.20 in 10.0 mi NW 16.1 mph 23.0 mph N/A   Overcast
2:53 AM 26.1 °F 14.0 °F 19.9 °F 78% 30.21 in 6.0 mi NW 15.0 mph 21.9 mph 0.00 in Snow Light Snow
3:53 AM 25.0 °F 14.8 °F 19.9 °F 81% 30.22 in 10.0 mi WNW 10.4 mph - 0.00 in   Overcast
4:03 AM 24.8 °F 14.6 °F 19.4 °F 80% 30.12 in 10.0 mi West 10.4 mph - N/A   Overcast
4:53 AM 24.1 °F 12.5 °F 19.0 °F 81% 30.25 in 10.0 mi WNW 12.7 mph - N/A   Overcast
5:53 AM 25.0 °F 13.6 °F 18.0 °F 75% 30.25 in 10.0 mi WNW 12.7 mph - 0.00 in   Overcast
6:53 AM 25.0 °F 13.6 °F 17.1 °F 72% 30.27 in 10.0 mi NW 12.7 mph - N/A   Overcast
7:53 AM 25.0 °F 14.2 °F 17.1 °F 72% 30.26 in 10.0 mi WNW 11.5 mph - N/A   Overcast
8:53 AM 26.1 °F 16.8 °F 17.1 °F 69% 30.26 in 10.0 mi WNW 9.2 mph - N/A   Overcast
9:53 AM 27.0 °F 16.7 °F 17.1 °F 66% 30.27 in 10.0 mi WNW 11.5 mph - N/A   Overcast
10:53 AM 28.9 °F 18.2 °F 15.1 °F 56% 30.27 in 10.0 mi NW 13.8 mph 21.9 mph N/A   Overcast
11:53 AM 28.9 °F 16.9 °F 14.0 °F 54% 30.24 in 10.0 mi NW 17.3 mph 28.8 mph N/A   Overcast
12:53 PM 28.9 °F 15.4 °F 12.9 °F 51% 30.22 in 10.0 mi NW 21.9 mph 32.2 mph N/A   Clear
1:53 PM 30.0 °F 18.3 °F 12.0 °F 47% 30.21 in 10.0 mi NW 17.3 mph 27.6 mph N/A   Clear
2:53 PM 30.0 °F 18.3 °F 10.9 °F 45% 30.22 in 10.0 mi NW 17.3 mph 24.2 mph N/A   Partly Cloudy
3:53 PM 28.9 °F 16.9 °F 12.0 °F 49% 30.24 in 10.0 mi NNW 17.3 mph 26.5 mph N/A   Scattered Clouds
4:53 PM 28.0 °F 15.7 °F 12.9 °F 53% 30.26 in 10.0 mi NW 17.3 mph 24.2 mph N/A   Overcast
5:53 PM 26.1 °F 12.3 °F 12.9 °F 58% 30.30 in 10.0 mi NW 19.6 mph 26.5 mph N/A   Overcast
6:53 PM 21.9 °F 9.8 °F 14.0 °F 72% 30.34 in 10.0 mi North 12.7 mph 24.2 mph N/A   Overcast
7:53 PM 21.0 °F 9.9 °F 14.0 °F 74% 30.37 in 10.0 mi NW 10.4 mph - N/A   Overcast
8:53 PM 19.9 °F 10.1 °F 14.0 °F 78% 30.38 in 10.0 mi NNW 8.1 mph - N/A   Overcast
9:53 PM 19.9 °F 7.9 °F 10.9 °F 68% 30.39 in 10.0 mi NW 11.5 mph - N/A   Overcast
10:53 PM 19.0 °F 6.8 °F 10.9 °F 71% 30.42 in 10.0 mi NW 11.5 mph - N/A   Overcast
11:41 PM 19.4 °F 7.9 °F 10.4 °F 68% 30.29 in 10.0 mi NNW 10.4 mph - N/A   Overcast
11:51 PM 19.4 °F 7.9 °F 10.4 °F 68% 30.29 in 10.0 mi NW 10.4 mph - N/A   Overcast
11:53 PM 19.0 °F 8.2 °F 10.9 °F 71% 30.42 in 10.0 mi NW 9.2 mph - N/A   Overcast